Weather History for Madrid, Spain

Change the Weather History Date:

Saturday, February 9, 2013

  Actual Average Record
Temperature  
Mean Temperature 43 °F -  
Max Temperature 51 °F 55 °F 62 °F (2008)
Min Temperature 33 °F 34 °F 19 °F (2012)
Degree Days  
Heating Degree Days 22    
Moisture  
Dew Point 27 °F    
Average Humidity 55    
Maximum Humidity 75    
Minimum Humidity 34    
Precipitation  
Precipitation 0.00 in 0.05 in - ()
Sea Level Pressure  
Sea Level Pressure 30.21 in    
Wind  
Wind Speed 6 mph ()    
Max Wind Speed 13 mph    
Max Gust Speed 17 mph    
Visibility 7.5 miles    
Events      
Averages and records for this station are not official NWS values.
T = Trace of Precipitation, MM = Missing Value Source: Averaged Metar Reports

Daily Weather History Graph

Daily Weather History Graph

Search for Another Location

Airport:

Trip Planner

Search our weather history database for the weather conditions in past years. The results will help you decide how hot, cold, wet, or windy it might be!

Date:

Astronomy

Feb. 09, 2013 Rise Set
Actual Time 8:15 AM CET 6:42 PM CET
Civil Twilight 7:46 AM CET 7:10 PM CET
Nautical Twilight 7:14 AM CET 7:42 PM CET
Astronomical Twilight 6:42 AM CET 8:14 PM CET
Moon 7:16 AM CET (2/9) 6:08 PM CET (2/9)
Length of Visible Light 11h 23m
Length of Day
10h 27m
Waning Crescent, 1% of the Moon is Illuminated
Feb 9
Waning Crescent
Feb 10
New
Feb 17
First Quarter
Feb 25
Full
Mar 4
Last Quarter

Hourly Weather History & Observations

Time (CET) Temp. Windchill Dew Point Humidity Pressure Visibility Wind Dir Wind Speed Gust Speed Precip Events Conditions
12:00 AM 37.4 °F 32.1 °F 24.8 °F 60% 30.12 in - North 6.9 mph - N/A   Clear
12:30 AM 35.6 °F 32.8 °F 24.8 °F 65% 30.12 in - NE 3.5 mph - N/A   Clear
1:00 AM 37 °F - 24 °F 48% 30.23 in 19 mi North 8.1 mph - -   Partly Cloudy
1:00 AM 37.4 °F 31.4 °F 24.8 °F 60% 30.15 in 6.2 mi North 8.1 mph - N/A   Scattered Clouds
1:30 AM 37.4 °F 30.8 °F 26.6 °F 65% 30.15 in 6.2 mi North 9.2 mph - N/A   Partly Cloudy
2:00 AM 37.4 °F 31.4 °F 26.6 °F 65% 30.15 in 6.2 mi North 8.1 mph - N/A   Partly Cloudy
2:30 AM 37.4 °F 30.3 °F 26.6 °F 65% 30.15 in 6.2 mi NNW 10.4 mph - N/A   Partly Cloudy
3:00 AM 39.2 °F 31.6 °F 28.4 °F 65% 30.15 in 6.2 mi North 12.7 mph - N/A   Partly Cloudy
3:30 AM 37.4 °F 30.3 °F 28.4 °F 70% 30.15 in 6.2 mi North 10.4 mph - N/A   Scattered Clouds
4:00 AM 39.2 °F 31.6 °F 28.4 °F 65% 30.15 in 6.2 mi North 12.7 mph - N/A   Scattered Clouds
4:30 AM 39.2 °F 32.5 °F 28.4 °F 65% 30.15 in 6.2 mi North 10.4 mph - N/A   Scattered Clouds
5:00 AM 39.2 °F 33.0 °F 28.4 °F 65% 30.15 in 6.2 mi North 9.2 mph - N/A   Partly Cloudy
5:30 AM 39.2 °F 33.0 °F 28.4 °F 65% 30.18 in 6.2 mi North 9.2 mph - N/A   Scattered Clouds
6:00 AM 39.2 °F 32.5 °F 26.6 °F 61% 30.18 in 6.2 mi North 10.4 mph - N/A   Mostly Cloudy
6:30 AM 39.2 °F 33.6 °F 26.6 °F 61% 30.18 in 6.2 mi North 8.1 mph - N/A   Scattered Clouds
7:00 AM 38 °F - 26 °F 49% 30.25 in 19 mi North 6.9 mph - -   Partly Cloudy
7:00 AM 39.2 °F 34.2 °F 26.6 °F 61% 30.18 in 6.2 mi North 6.9 mph - N/A   Scattered Clouds
7:30 AM 37.4 °F 32.8 °F 26.6 °F 65% 30.18 in 6.2 mi North 5.8 mph - N/A   Mostly Cloudy
8:00 AM 39.2 °F 33.0 °F 26.6 °F 61% 30.18 in 6.2 mi North 9.2 mph - N/A   Scattered Clouds
8:30 AM 37.4 °F 32.1 °F 28.4 °F 70% 30.21 in 6.2 mi North 6.9 mph - N/A   Scattered Clouds
9:00 AM 39.2 °F 32.5 °F 28.4 °F 65% 30.21 in 6.2 mi North 10.4 mph - N/A   Scattered Clouds
9:30 AM 41.0 °F 35.8 °F 28.4 °F 61% 30.21 in 6.2 mi NNW 8.1 mph - N/A   Scattered Clouds
10:00 AM 44.6 °F 39.2 °F 26.6 °F 49% 30.24 in 6.2 mi North 10.4 mph - N/A   Scattered Clouds
10:30 AM 44.6 °F 40.7 °F 28.4 °F 53% 30.24 in 6.2 mi NNW 6.9 mph - N/A   Scattered Clouds
11:00 AM 44.6 °F - 26.6 °F 49% 30.24 in 6.2 mi West 2.3 mph - N/A   Mostly Cloudy
11:30 AM 44.6 °F 43.1 °F 26.6 °F 49% 30.24 in 6.2 mi SSW 3.5 mph - N/A   Mostly Cloudy
12:00 PM 46.4 °F - 28.4 °F 50% 30.27 in 6.2 mi West 2.3 mph - N/A   Mostly Cloudy
12:30 PM 48.2 °F - 32.0 °F 54% 30.27 in 6.2 mi North 3.5 mph - N/A   Scattered Clouds
1:00 PM 47 °F - 28 °F 34% 30.30 in 19 mi West 6.9 mph - -   Mostly Cloudy
1:00 PM 46.4 °F 43.5 °F 26.6 °F 46% 30.27 in 6.2 mi West 5.8 mph 17.3 mph N/A   Mostly Cloudy
1:30 PM 46.4 °F 43.5 °F 28.4 °F 50% 30.27 in 6.2 mi WSW 5.8 mph - N/A   Scattered Clouds
2:00 PM 48.2 °F - 26.6 °F 43% 30.24 in 6.2 mi WSW 5.8 mph - N/A   Scattered Clouds
2:30 PM 50.0 °F - 28.4 °F 43% 30.24 in 6.2 mi WSW 4.6 mph - N/A   Scattered Clouds
3:00 PM 48.2 °F - 26.6 °F 43% 30.24 in 6.2 mi North 1.2 mph - N/A   Scattered Clouds
3:30 PM 50.0 °F - 28.4 °F 43% 30.24 in 6.2 mi SSE 1.2 mph - N/A   Partly Cloudy
4:00 PM 51.8 °F - 28.4 °F 41% 30.24 in 6.2 mi NW 3.5 mph - N/A   Partly Cloudy
4:30 PM 51.8 °F - 28.4 °F 41% 30.24 in 6.2 mi North 3.5 mph - N/A   Scattered Clouds
5:30 PM 51.8 °F - 26.6 °F 38% 30.24 in 6.2 mi NW 3.5 mph - N/A   Scattered Clouds
6:00 PM 48.2 °F - 28.4 °F 46% 30.24 in 6.2 mi North 5.8 mph - N/A   Partly Cloudy
6:30 PM 48.2 °F - 28.4 °F 46% 30.24 in 6.2 mi North 5.8 mph - N/A   Partly Cloudy
7:00 PM 45 °F - 27 °F 36% 30.29 in 19 mi North 2.3 mph - -   Scattered Clouds
7:00 PM 46.4 °F - 28.4 °F 50% 30.24 in 6.2 mi Calm Calm - N/A   Partly Cloudy
7:30 PM 44.6 °F 43.1 °F 28.4 °F 53% 30.24 in - North 3.5 mph - N/A   Clear
8:00 PM 42.8 °F 39.3 °F 26.6 °F 53% 30.24 in - South 5.8 mph - N/A   Clear
8:30 PM 42.8 °F 41.1 °F 26.6 °F 53% 30.24 in - South 3.5 mph - N/A   Clear
9:00 PM 41.0 °F - 26.6 °F 57% 30.24 in - Calm Calm - N/A   Clear
9:30 PM 41.0 °F - 26.6 °F 57% 30.24 in - Calm Calm - N/A   Clear
10:00 PM 37.4 °F - 26.6 °F 65% 30.24 in - North 1.2 mph - N/A   Clear
10:30 PM 37.4 °F - 26.6 °F 65% 30.24 in - Calm Calm - N/A   Clear
11:00 PM 35.6 °F - 26.6 °F 70% 30.24 in - Variable 2.3 mph - N/A   Clear
11:30 PM 33.8 °F - 26.6 °F 75% 30.21 in - Variable 2.3 mph - N/A   Clear